Location: McCloud Nature Park
(39.8272°N, 86.6824°W)
Time: 23:15:44
(UTC-05:00)

Amateur Radio Satellites - All Passes

Search period start: 26 May 2017 22:45
Search period end: 27 May 2017 22:45
Location: McCloud Nature Park, 39.8272°N, 86.6824°W

Satellite Date Start Highest point End Downlink Frequencies (MHz)
Time Altitude Azimuth
VELOX 1 26 May 23:05:07 23:07:04 13° 63° (ENE) 23:09:02 145.980
AIST 2D 26 May 23:09:54 23:11:44 13° 92° (E) 23:13:33 435.315
UNISAT 6 26 May 23:14:19 23:18:50 56° 286° (WNW) 23:23:24 437.425
PRISM 26 May 23:18:42 23:22:26 35° 289° (WNW) 23:26:07 437.425
LO-87 26 May 23:19:30 23:22:58 56° 259° (W) 23:26:29 145.935 - 145.965
FO-29 26 May 23:29:10 23:35:30 59° 288° (WNW) 23:42:36 435.910
DX 1 26 May 23:40:54 23:41:58 11° 62° (ENE) 23:43:02 434.975-435.025
EO-79 26 May 23:41:15 23:44:09 18° 93° (E) 23:47:02 145.935-145.965
ESTCUBE 1 26 May 23:43:50 23:48:20 63° 259° (W) 23:52:52 437.505/2401.250
SO-50 26 May 23:49:07 23:52:37 21° 314° (NW) 23:56:06 436.795
YUBILEINY 26 May 23:50:05 23:55:49 20° 79° (ENE) 00:01:34 435.215
ISS 27 May 00:11:02 00:11:56 11° 3° (N) 00:12:49 437.550
TIGRISAT 27 May 00:20:49 00:23:12 14° 296° (WNW) 00:25:35 435.000
NANOSAT C BR1 27 May 00:25:21 00:29:30 51° 100° (E) 00:33:38 145.865
POLYITAN 1 27 May 00:30:04 00:34:20 65° 101° (E) 00:38:35 437.675
SPROUT 27 May 00:30:54 00:35:07 74° 258° (WSW) 00:39:22 437.525
50 SAT 27 May 00:31:23 00:34:46 54° 75° (ENE) 00:38:09 437.505
DUCHIFAT 1 27 May 00:35:52 00:40:04 60° 101° (E) 00:44:16 145.980
VELOX 1 27 May 00:38:37 00:42:59 61° 259° (WSW) 00:47:22 145.980
QB50P2 27 May 00:38:45 00:43:02 89° 86° (E) 00:47:19 145.880/145.840
AIST 2D 27 May 00:41:49 00:45:02 33° 288° (WNW) 00:48:15 435.315
RS-15 27 May 00:53:00 01:02:57 32° 103° (ESE) 01:13:04 29.354- 29.394
BUGSAT 1 27 May 00:53:19 00:56:53 27° 97° (E) 01:00:27 437.445
UKube-1 27 May 01:04:57 01:09:12 61° 74° (ENE) 01:13:27 .
Tancredo 1 27 May 01:12:43 01:14:47 16° 21° (NNE) 01:16:50 437.200
DX 1 27 May 01:13:12 01:17:32 72° 258° (WSW) 01:21:53 434.975-435.025
EO-79 27 May 01:16:05 01:20:01 37° 289° (WNW) 01:23:57 145.935-145.965
Gurwin Techsat 1B 27 May 01:36:55 01:40:32 18° 92° (E) 01:44:08 435.225
YUBILEINY 27 May 01:42:45 01:51:28 81° 277° (W) 02:00:18 435.215
ISS 27 May 01:46:50 01:49:24 21° 23° (NNE) 01:51:58 437.550
ITUPSAT 1 27 May 01:49:45 01:52:50 18° 64° (ENE) 01:55:58 437.325
Oscar 19 27 May 01:55:41 02:00:40 46° 99° (E) 02:05:34 437.125/150
NANOSAT C BR1 27 May 02:02:33 02:04:46 14° 295° (WNW) 02:06:58 145.865
MOZHAYETS 4 27 May 02:03:27 02:05:21 12° 62° (ENE) 02:07:15
POLYITAN 1 27 May 02:08:07 02:09:33 11° 297° (WNW) 02:10:59 437.675
DUCHIFAT 1 27 May 02:13:35 02:15:12 12° 297° (WNW) 02:16:50 145.980
BEESAT 27 May 02:21:35 02:25:54 36° 70° (ENE) 02:30:16 436.000
BUGSAT 1 27 May 02:28:49 02:32:06 23° 291° (WNW) 02:35:24 437.445
UKube-1 27 May 02:44:28 02:45:36 11° 269° (W) 02:46:43 .
Tancredo 1 27 May 02:47:49 02:50:53 87° 215° (SW) 02:53:57 437.200
O/OREOS (USA 219) 27 May 02:51:28 02:53:55 14° 99° (E) 02:56:23 437.305
ITAMSAT 1 27 May 02:59:41 03:02:29 14° 91° (E) 03:05:16 435.822/435.867
RS-15 27 May 03:02:12 03:14:19 75° 304° (NW) 03:26:47 29.354- 29.394
AO-7 27 May 03:12:45 03:19:20 25° 94° (E) 03:25:51 .
Gurwin Techsat 1B 27 May 03:15:36 03:20:46 53° 289° (WNW) 03:25:55 435.225
ISS 27 May 03:22:54 03:26:09 62° 220° (SW) 03:29:22 437.550
ITUPSAT 1 27 May 03:25:38 03:30:15 50° 260° (W) 03:34:55 437.325
Oscar 19 27 May 03:35:47 03:39:38 22° 296° (WNW) 03:43:27 437.125/150
MOZHAYETS 4 27 May 03:37:19 03:41:53 69° 259° (WSW) 03:46:31
PCSat 27 May 03:43:57 03:48:53 34° 53° (NE) 03:53:46 145.827
YUBILEINY 27 May 03:44:51 03:49:47 16° 299° (WNW) 03:54:45 435.215
AO-85 27 May 03:46:24 03:49:40 22° 113° (ESE) 03:52:51 145.980
BEESAT 27 May 04:00:01 04:03:45 23° 265° (W) 04:07:29 436.000
CUBESAT XI-V 27 May 04:24:21 04:29:00 66° 75° (ENE) 04:33:41 437.345
KKS-1 27 May 04:27:23 04:31:45 61° 73° (ENE) 04:36:07 437.445
O/OREOS (USA 219) 27 May 04:28:21 04:32:50 52° 295° (WNW) 04:37:20 437.305
BEESAT 3 27 May 04:37:07 04:40:18 24° 112° (ESE) 04:43:30 437.485
ITAMSAT 1 27 May 04:37:12 04:42:22 65° 287° (WNW) 04:47:31 435.822/435.867
STARS 27 May 04:57:03 05:01:18 54° 73° (ENE) 05:05:34 437.465
AO-7 27 May 05:04:22 05:12:39 70° 292° (WNW) 05:20:56 .
RS-15 27 May 05:19:14 05:29:24 29° 332° (NNW) 05:39:39 29.354- 29.394
AO-85 27 May 05:26:11 05:29:54 31° 308° (NW) 05:33:29 145.980
PCSat 27 May 05:27:22 05:32:13 34° 250° (WSW) 05:37:03 145.827
XW-2F 27 May 05:52:12 05:53:26 11° 91° (E) 05:54:39 145.980 - 146.000
XW-2C 27 May 05:53:15 05:54:56 12° 91° (E) 05:56:37 145.795 - 145.815
BEESAT 2 27 May 05:54:41 05:58:36 63° 119° (ESE) 06:02:35 435.950
KAITUO 1B 27 May 05:59:03 06:00:05 11° 91° (E) 06:01:07 145.475/437.950
STRAND 1 27 May 06:01:26 06:04:15 15° 61° (ENE) 06:07:04 437.568
CUBESAT XI-V 27 May 06:04:59 06:06:47 12° 270° (W) 06:08:37 437.345
KKS-1 27 May 06:07:10 06:08:40 11° 269° (W) 06:10:11 437.445
BEESAT 3 27 May 06:14:14 06:17:44 29° 309° (NW) 06:21:17 437.485
LilacSat-2 27 May 06:30:21 06:34:00 38° 98° (E) 06:37:36 437.200
DOVE 4 27 May 06:34:11 06:38:23 78° 104° (ESE) 06:42:40 437.250
STARS 27 May 06:36:01 06:37:57 13° 268° (W) 06:39:53 437.465
CUTE-I 27 May 06:36:11 06:41:09 38° 98° (E) 06:46:05 437.470
SO-50 27 May 06:39:26 06:43:36 35° 51° (NE) 06:47:45 436.795
AO-7 27 May 06:59:27 07:03:56 16° 312° (NW) 07:08:26 .
M-CUBED/EXP-1 PRIME 27 May 06:59:39 07:01:22 12° 61° (ENE) 07:03:03 437.505
XW-2D 27 May 07:03:50 07:07:42 80° 283° (WNW) 07:11:31 145.860 - 145.880
XW-2B 27 May 07:11:50 07:15:40 65° 284° (WNW) 07:19:27 145.730 - 145.750
NUDT-PHONESAT 27 May 07:21:13 07:24:58 63° 284° (WNW) 07:28:41 437.300
XW-2F 27 May 07:24:07 07:27:49 46° 286° (WNW) 07:31:28 145.980 - 146.000
XW-2C 27 May 07:25:40 07:29:19 42° 287° (WNW) 07:32:57 145.795 - 145.815
CUBEBUG 2 27 May 07:25:58 07:27:41 12° 90° (E) 07:29:25 437.445
NO-84 27 May 07:27:28 07:30:47 21° 125° (SE) 07:34:04 435.350 FM
SEEDS 27 May 07:29:29 07:31:59 15° 92° (E) 07:34:29 437.485
KAITUO 1B 27 May 07:30:41 07:34:21 47° 286° (WNW) 07:37:58 145.475/437.950
BEESAT 2 27 May 07:34:31 07:36:46 14° 317° (NW) 07:39:01 435.950
STRAND 1 27 May 07:37:46 07:42:49 68° 258° (WSW) 07:47:56 437.568
RS-15 27 May 07:39:04 07:47:49 21° 8° (N) 07:56:25 29.354- 29.394
XW-2A 27 May 07:42:14 07:45:11 26° 97° (E) 07:48:07 145.665 - 145.685
HO-68 27 May 07:56:54 08:03:56 53° 101° (E) 08:10:55 435.675
LilacSat-2 27 May 08:05:42 08:07:56 15° 294° (WNW) 08:10:09 437.200
CUTE 1.7 + AOD 2 27 May 08:15:38 08:19:56 86° 101° (E) 08:24:10 437.475
CUTE-I 27 May 08:16:35 08:21:00 27° 294° (WNW) 08:25:25 437.470
SO-50 27 May 08:20:12 08:23:53 25° 248° (WSW) 08:27:34 436.795
AAUSAT CUBESAT 2 27 May 08:26:17 08:29:58 31° 96° (E) 08:33:38 437.432
M-CUBED/EXP-1 PRIME 27 May 08:31:13 08:35:26 59° 254° (WSW) 08:39:21 437.505
AO-73 27 May 08:31:16 08:34:30 19° 93° (E) 08:37:43 145.935
PRISM 27 May 08:34:10 08:35:44 12° 63° (ENE) 08:37:18 437.425
UNISAT 6 27 May 08:39:22 08:40:20 11° 62° (ENE) 08:41:17 437.425
ZACube-1 27 May 08:45:03 08:49:03 29° 96° (E) 08:53:03 437.345
CUBEBUG 2 27 May 09:00:05 09:04:39 66° 285° (WNW) 09:09:19 437.445
NO-84 27 May 09:03:48 09:08:07 56° 320° (NW) 09:12:20 435.350 FM
SEEDS 27 May 09:03:53 09:07:51 41° 287° (WNW) 09:11:47 437.485
UWE-3 27 May 09:08:57 09:13:35 87° 283° (WNW) 09:18:15 435.000/436.395/437.385
XW-2A 27 May 09:15:31 09:17:42 16° 292° (WNW) 09:19:54 145.665 - 145.685
Oscar 11 27 May 09:38:56 09:43:19 81° 101° (ESE) 09:47:39 .
TIGRISAT 27 May 09:40:24 09:44:27 45° 73° (ENE) 09:48:37 435.000
FO-29 27 May 09:41:41 09:46:42 54° 72° (ENE) 09:51:53 435.910
HO-68 27 May 09:45:14 09:51:17 30° 298° (WNW) 09:57:19 435.675
RS-15 27 May 09:53:33 10:05:01 42° 41° (NE) 10:15:58 29.354- 29.394
AAUSAT CUBESAT 2 27 May 10:02:11 10:05:13 20° 292° (WNW) 10:08:14 437.432
PRISM 27 May 10:06:26 10:10:30 58° 259° (WSW) 10:14:35 437.425
AO-73 27 May 10:06:35 10:10:51 40° 288° (WNW) 10:15:07 145.935
EO-88 27 May 10:06:36 10:09:50 28° 97° (E) 10:13:02 145.990 - 145.960
UNISAT 6 27 May 10:12:09 10:16:24 71° 259° (W) 10:20:45 437.425
DELFI C3 27 May 10:13:38 10:17:30 52° 100° (E) 10:21:18 145.870
ZACube-1 27 May 10:21:24 10:25:12 26° 291° (WNW) 10:29:00 437.345
EO-79 27 May 10:34:09 10:35:56 13° 64° (ENE) 10:37:44 145.935-145.965
NO-84 27 May 10:43:53 10:46:29 15° 339° (NNW) 10:48:59 435.350 FM
LO-87 27 May 10:49:06 10:50:10 11° 92° (E) 10:51:14 145.935 - 145.965
AIST 2D 27 May 11:14:40 11:18:09 71° 77° (ENE) 11:21:42 435.315
NANOSAT C BR1 27 May 11:16:37 11:20:22 33° 71° (ENE) 11:24:08 145.865
TIGRISAT 27 May 11:19:04 11:21:24 14° 269° (W) 11:23:47 435.000
POLYITAN 1 27 May 11:21:41 11:25:37 42° 72° (ENE) 11:29:36 437.675
DUCHIFAT 1 27 May 11:26:45 11:30:36 38° 72° (ENE) 11:34:29 145.980
FO-29 27 May 11:29:12 11:32:17 16° 269° (W) 11:35:25 435.910
QB50P2 27 May 11:30:13 11:34:19 58° 74° (ENE) 11:38:28 145.880/145.840
ESTCUBE 1 27 May 11:37:22 11:41:14 28° 96° (E) 11:45:05 437.505/2401.250
EO-88 27 May 11:40:48 11:43:16 17° 292° (WNW) 11:45:45 145.990 - 145.960
BUGSAT 1 27 May 11:43:02 11:45:41 17° 66° (ENE) 11:48:21 437.445
DELFI C3 27 May 11:50:26 11:51:47 12° 296° (WNW) 11:53:09 145.870
YUBILEINY 27 May 11:53:59 12:02:30 50° 76° (ENE) 12:10:59 435.215
RS-15 27 May 12:06:19 12:18:16 67° 246° (WSW) 12:29:35 29.354- 29.394
EO-79 27 May 12:07:06 12:11:12 56° 260° (W) 12:15:21 145.935-145.965
AO-85 27 May 12:17:37 12:20:23 17° 46° (NE) 12:23:13 145.980
SPROUT 27 May 12:18:00 12:21:06 19° 94° (E) 12:24:11 437.525
LO-87 27 May 12:20:26 12:23:47 39° 287° (WNW) 12:27:08 145.935 - 145.965
VELOX 1 27 May 12:29:41 12:33:20 25° 96° (E) 12:36:57 145.980
NANOSAT C BR1 27 May 12:53:09 12:56:08 19° 266° (W) 12:59:08 145.865
BEESAT 3 27 May 12:54:50 12:57:02 14° 43° (NE) 12:59:13 437.485
UKube-1 27 May 12:55:36 12:56:15 10° 90° (E) 12:56:54 .
Gurwin Techsat 1B 27 May 12:57:00 13:01:27 28° 66° (ENE) 13:05:55 435.225
POLYITAN 1 27 May 12:59:10 13:01:36 15° 268° (W) 13:04:03 437.675
O/OREOS (USA 219) 27 May 13:00:20 13:04:05 25° 59° (ENE) 13:07:47 437.305
DX 1 27 May 13:02:48 13:06:00 20° 94° (E) 13:09:10 434.975-435.025
DUCHIFAT 1 27 May 13:03:48 13:06:25 16° 267° (W) 13:09:03 145.980
QB50P2 27 May 13:09:23 13:10:28 11° 270° (W) 13:11:34 145.880/145.840
Oscar 19 27 May 13:11:33 13:16:40 63° 73° (ENE) 13:21:49 437.125/150
ESTCUBE 1 27 May 13:14:11 13:17:56 26° 292° (WNW) 13:21:39 437.505/2401.250
BUGSAT 1 27 May 13:17:08 13:20:46 34° 262° (W) 13:24:28 437.445
50 SAT 27 May 13:27:40 13:31:02 62° 101° (E) 13:34:23 437.505
YUBILEINY 27 May 13:51:16 13:58:58 35° 275° (W) 14:06:40 435.215
SPROUT 27 May 13:53:12 13:57:04 34° 289° (WNW) 14:00:56 437.525
AO-85 27 May 13:57:03 14:00:58 48° 242° (WSW) 14:05:07 145.980
NO-84 27 May 14:02:17 14:04:40 15° 21° (NNE) 14:06:57 435.350 FM
VELOX 1 27 May 14:06:00 14:09:43 28° 291° (WNW) 14:13:26 145.980
AO-7 27 May 14:11:00 14:18:10 34° 59° (ENE) 14:25:22 .
BEESAT 2 27 May 14:13:10 14:16:47 30° 51° (NE) 14:20:21 435.950
ITAMSAT 1 27 May 14:16:34 14:20:28 22° 64° (ENE) 14:24:21 435.822/435.867
RS-15 27 May 14:23:46 14:28:05 13° 266° (W) 14:32:20 29.354- 29.394
UKube-1 27 May 14:28:24 14:32:40 64° 286° (WNW) 14:36:55 .
BEESAT 3 27 May 14:31:03 14:35:02 64° 241° (WSW) 14:38:56 437.485
Gurwin Techsat 1B 27 May 14:36:23 14:41:14 36° 263° (W) 14:46:06 435.225
DX 1 27 May 14:38:19 14:42:14 34° 290° (WNW) 14:46:08 434.975-435.025
O/OREOS (USA 219) 27 May 14:39:32 14:43:28 30° 256° (WSW) 14:47:22 437.305
Oscar 19 27 May 14:53:28 14:56:23 15° 269° (W) 14:59:20 437.125/150
ITUPSAT 1 27 May 15:26:40 15:31:15 42° 99° (E) 15:35:49 437.325
MOZHAYETS 4 27 May 15:33:20 15:37:23 29° 96° (E) 15:41:23
NO-84 27 May 15:39:08 15:42:54 73° 42° (NE) 15:46:18 435.350 FM
BEESAT 2 27 May 15:51:07 15:54:24 24° 248° (WSW) 15:57:39 435.950
ITAMSAT 1 27 May 15:54:40 15:59:35 45° 261° (W) 16:04:33 435.822/435.867
BEESAT 27 May 15:59:24 16:04:13 86° 282° (WNW) 16:09:00 436.000
AO-7 27 May 16:02:30 16:10:33 55° 257° (WSW) 16:18:41 .
KKS-1 27 May 16:21:00 16:22:44 12° 91° (E) 16:24:29 437.445
CUBESAT XI-V 27 May 16:22:47 16:25:48 17° 92° (E) 16:28:48 437.345
ITUPSAT 1 27 May 17:05:14 17:08:46 21° 295° (WNW) 17:12:17 437.325
MOZHAYETS 4 27 May 17:10:31 17:14:26 27° 292° (WNW) 17:18:19
LilacSat-2 27 May 17:12:11 17:14:48 18° 68° (ENE) 17:17:27 437.200
DOVE 4 27 May 17:38:32 17:43:08 72° 76° (ENE) 17:47:30 437.250
XW-2D 27 May 17:44:02 17:47:37 41° 73° (ENE) 17:51:15 145.860 - 145.880
XW-2B 27 May 17:51:55 17:55:35 50° 75° (ENE) 17:59:19 145.730 - 145.750
KKS-1 27 May 17:55:16 17:59:39 59° 286° (WNW) 18:04:00 437.445
CUTE-I 27 May 17:57:10 18:02:21 58° 72° (ENE) 18:07:33 437.470
CUBESAT XI-V 27 May 17:58:57 18:03:23 45° 288° (WNW) 18:07:47 437.345
NUDT-PHONESAT 27 May 17:59:22 18:02:56 47° 74° (ENE) 18:06:33 437.300
XW-2F 27 May 18:03:36 18:07:21 69° 77° (ENE) 18:11:11 145.980 - 146.000
XW-2C 27 May 18:05:30 18:09:18 77° 75° (ENE) 18:13:08 145.795 - 145.815
KAITUO 1B 27 May 18:09:18 18:13:01 66° 76° (ENE) 18:16:48 145.475/437.950
SEEDS 27 May 18:22:12 18:23:06 11° 63° (ENE) 18:24:00 437.485
STARS 27 May 18:23:00 18:27:23 69° 285° (WNW) 18:31:44 437.465
HO-68 27 May 18:24:52 18:31:16 37° 64° (ENE) 18:37:43 435.675
PCSat 27 May 18:24:56 18:29:45 34° 110° (ESE) 18:34:36 145.827
LilacSat-2 27 May 18:45:26 18:48:50 30° 263° (W) 18:52:17 437.200
CUTE 1.7 + AOD 2 27 May 19:07:02 19:11:12 53° 74° (ENE) 19:15:24 437.475
AAUSAT CUBESAT 2 27 May 19:16:00 19:19:02 20° 68° (ENE) 19:22:05 437.432
Tancredo 1 27 May 19:19:36 19:22:23 33° 136° (SE) 19:25:12 437.200
XW-2D 27 May 19:20:17 19:22:01 13° 269° (W) 19:23:44 145.860 - 145.880
AO-73 27 May 19:27:17 19:29:13 13° 63° (ENE) 19:31:11 145.935
XW-2B 27 May 19:29:22 19:30:04 10° 270° (W) 19:30:45 145.730 - 145.750
NUDT-PHONESAT 27 May 19:36:22 19:37:06 10° 269° (W) 19:37:50 437.300
CUTE-I 27 May 19:39:23 19:42:45 17° 268° (W) 19:46:07 437.470
ZACube-1 27 May 19:40:40 19:43:46 20° 67° (ENE) 19:46:55 437.345
XW-2A 27 May 19:44:42 19:47:58 52° 260° (W) 19:51:17 145.665 - 145.685
STRAND 1 27 May 19:49:01 19:53:56 43° 99° (E) 19:58:49 437.568
SEEDS 27 May 19:53:56 19:58:10 70° 258° (WSW) 20:02:26 437.485
CUBEBUG 2 27 May 19:57:17 20:01:25 88° 250° (WSW) 20:05:41 437.445
ISS 27 May 20:02:06 20:05:20 59° 139° (SE) 20:08:36 437.550
UWE-3 27 May 20:05:01 20:09:09 66° 75° (ENE) 20:13:25 435.000/436.395/437.385
PCSat 27 May 20:08:12 20:13:06 34° 307° (NW) 20:18:02 145.827
HO-68 27 May 20:12:08 20:18:51 43° 261° (W) 20:25:38 435.675
Oscar 11 27 May 20:32:31 20:36:46 54° 73° (ENE) 20:41:02 .
EO-88 27 May 20:45:17 20:46:44 12° 66° (ENE) 20:48:12 145.990 - 145.960
CUTE 1.7 + AOD 2 27 May 20:45:27 20:47:20 13° 269° (W) 20:49:13 437.475
AAUSAT CUBESAT 2 27 May 20:50:29 20:54:15 33° 263° (W) 20:58:03 437.432
SO-50 27 May 20:55:18 20:57:17 13° 108° (ESE) 20:59:15 436.795
Tancredo 1 27 May 20:55:30 20:58:10 26° 332° (NNW) 21:00:50 437.200
DELFI C3 27 May 20:58:21 21:01:43 27° 70° (ENE) 21:05:06 145.870
AO-73 27 May 21:00:48 21:04:56 56° 260° (W) 21:09:11 145.935
ZACube-1 27 May 21:15:59 21:19:48 33° 264° (W) 21:23:43 437.345
STRAND 1 27 May 21:28:52 21:32:48 23° 295° (WNW) 21:36:44 437.568
TIGRISAT 27 May 21:34:43 21:35:58 11° 90° (E) 21:37:12 435.000
ISS 27 May 21:39:27 21:42:04 21° 337° (NNW) 21:44:41 437.550
M-CUBED/EXP-1 PRIME 27 May 21:44:53 21:48:09 69° 289° (WNW) 21:51:23 437.505
PRISM 27 May 21:49:12 21:52:06 19° 94° (E) 21:54:58 437.425
UNISAT 6 27 May 22:04:34 22:08:27 26° 95° (E) 22:12:21 437.425
Oscar 11 27 May 22:11:21 22:13:12 12° 269° (W) 22:15:05 .
EO-88 27 May 22:16:32 22:20:01 42° 261° (W) 22:23:32 145.990 - 145.960
SO-50 27 May 22:32:37 22:37:10 67° 303° (WNW) 22:41:43 436.795
DELFI C3 27 May 22:33:22 22:36:27 21° 265° (W) 22:39:32 145.870
Tancredo 1 27 May 22:34:13 22:34:44 10° 352° (N) 22:35:15 437.200
ESTCUBE 1 27 May 22:36:13 22:39:52 24° 68° (ENE) 22:43:32 437.505/2401.250
